Tracking 18980 objects as of 22-Feb-2018
HD Live streaming from Space Station
objects crossing your sky now

COSMOS 968

Track COSMOS 968 now!
10-day predictions
COSMOS 968 is classified as:


NORAD ID: 10520
Int'l Code: 1977-119A
Perigee: 765.6 km
Apogee: 792.0 km
Inclination: 74.0 °
Period: 100.3 minutes
Semi major axis: 7149 km
RCS: 2.1356 m2 (large)
Launch date: December 16, 1977
Source: Commonwealth of Independent States (former USSR) (CIS)
Launch site: PLESETSK MISSILE AND SPACE COMPLEX (PKMTR)
aabbcc
Your satellite tracking list
Your tracking list is empty




NASA's NSSDC Master Catalog

Two Line Element Set (TLE):
1 10520U 77119A   18053.18227918  .00000021  00000-0  16336-4 0  9994
2 10520  74.0315 318.8366 0018416 212.1937 147.8093 14.36021252103103
Source of the keplerian elements: AFSPC